When you browse on this site, cookies collect data to enhance your experience and personalize the content and advertising you see.
Visit our Privacy Policy to learn more. By continuing to use the site, you agree to this use of cookies and data.
  • In Spain
  • List of Countries
  • For 7 days
  • Water Temperature
  • Satellite Maps
  • Weather Map
  • Weather Widgets
  • user-avatar
    Login

    Hourly Weather Er-Riyad

    Today, 19 February, Tuesday

    Time Temperature Precipitation Wind Pressure Humidity
    00:00 +15°C° 0 mm 6 mps 705 mmHg 26%
    01:00 +15°C° 0 mm 5 mps 705 mmHg 27%
    02:00 +14°C° 0 mm 5 mps 705 mmHg 28%
    03:00 +14°C° 0 mm 5 mps 705 mmHg 29%
    04:00 +14°C° 0 mm 4 mps 705 mmHg 30%
    05:00 +14°C° 0 mm 4 mps 705 mmHg 30%
    06:00 +13°C° 0 mm 3 mps 705 mmHg 30%
    07:00 +15°C° 0 mm 5 mps 706 mmHg 26%
    08:00 +16°C° 0 mm 7 mps 706 mmHg 22%
    09:00 +17°C° 0 mm 9 mps 707 mmHg 18%
    10:00 +18°C° 0 mm 10 mps 707 mmHg 17%
    11:00 +19°C° 0 mm 11 mps 707 mmHg 16%
    12:00 +19°C° 0 mm 11 mps 707 mmHg 16%
    13:00 +19°C° 0 mm 12 mps 707 mmHg 21%
    14:00 +18°C° 0 mm 13 mps 707 mmHg 26%
    15:00 +18°C° 0 mm 14 mps 707 mmHg 31%
    16:00 +15°C° 0 mm 12 mps 708 mmHg 39%
    17:00 +13°C° 0 mm 10 mps 709 mmHg 47%
    18:00 +11°C° 0 mm 9 mps 710 mmHg 55%
    19:00 +11°C° 0 mm 8 mps 710 mmHg 54%
    20:00 +11°C° 0 mm 8 mps 711 mmHg 53%
    21:00 +11°C° 0 mm 7 mps 712 mmHg 52%
    22:00 +10°C° 0 mm 7 mps 712 mmHg 51%
    23:00 +10°C° 0 mm 6 mps 712 mmHg 51%

    Tomorrow, 20 February, Wednesday

    Time Temperature Precipitation Wind Pressure Humidity
    00:00 +9°C° 0 mm 5 mps 712 mmHg 50%
    01:00 +9°C° 0 mm 5 mps 712 mmHg 50%
    02:00 +10°C° 0 mm 4 mps 712 mmHg 50%
    03:00 +10°C° 0 mm 4 mps 712 mmHg 50%
    04:00 +9°C° 0 mm 3 mps 712 mmHg 51%
    05:00 +9°C° 0 mm 3 mps 712 mmHg 51%
    06:00 +9°C° 0 mm 3 mps 712 mmHg 52%
    07:00 +10°C° 0 mm 3 mps 713 mmHg 47%
    08:00 +11°C° 0 mm 4 mps 713 mmHg 41%
    09:00 +13°C° 0 mm 4 mps 714 mmHg 36%
    10:00 +14°C° 0 mm 4 mps 714 mmHg 32%
    11:00 +15°C° 0 mm 4 mps 713 mmHg 27%
    12:00 +17°C° 0 mm 4 mps 713 mmHg 23%
    13:00 +18°C° 0 mm 3 mps 713 mmHg 21%
    14:00 +18°C° 0 mm 3 mps 712 mmHg 19%
    15:00 +19°C° 0 mm 3 mps 712 mmHg 17%
    16:00 +18°C° 0 mm 2 mps 712 mmHg 18%
    17:00 +18°C° 0 mm 2 mps 712 mmHg 18%
    18:00 +18°C° 0 mm 2 mps 712 mmHg 18%
    19:00 +17°C° 0 mm 2 mps 712 mmHg 19%
    20:00 +17°C° 0 mm 2 mps 713 mmHg 21%
    21:00 +16°C° 0 mm 2 mps 713 mmHg 22%
    22:00 +15°C° 0 mm 2 mps 713 mmHg 24%
    23:00 +15°C° 0 mm 2 mps 713 mmHg 26%

    Day after tomorrow, 21 February, Thursday

    Time Temperature Precipitation Wind Pressure Humidity
    00:00 +14°C° 0 mm 2 mps 713 mmHg 28%
    01:00 +14°C° 0 mm 1 mps 713 mmHg 30%
    02:00 +13°C° 0 mm 1 mps 712 mmHg 31%
    03:00 +12°C° 0 mm 1 mps 712 mmHg 33%
    04:00 +12°C° 0 mm 1 mps 712 mmHg 34%
    05:00 +12°C° 0 mm 1 mps 712 mmHg 35%
    06:00 +11°C° 0 mm 1 mps 712 mmHg 36%
    07:00 +13°C° 0 mm 1 mps 713 mmHg 33%
    08:00 +14°C° 0 mm 1 mps 713 mmHg 30%
    09:00 +15°C° 0 mm 1 mps 714 mmHg 27%
    10:00 +16°C° 0 mm 2 mps 714 mmHg 24%
    11:00 +17°C° 0 mm 2 mps 713 mmHg 22%
    12:00 +19°C° 0 mm 2 mps 713 mmHg 20%
    13:00 +19°C° 0 mm 2 mps 712 mmHg 18%
    14:00 +21°C° 0 mm 1 mps 712 mmHg 17%
    15:00 +21°C° 0 mm 1 mps 711 mmHg 16%
    16:00 +21°C° 0 mm 1 mps 711 mmHg 16%
    17:00 +20°C° 0 mm 2 mps 711 mmHg 16%
    18:00 +20°C° 0 mm 2 mps 711 mmHg 17%
    19:00 +19°C° 0 mm 2 mps 712 mmHg 18%
    20:00 +18°C° 0 mm 3 mps 712 mmHg 19%
    21:00 +18°C° 0 mm 3 mps 712 mmHg 20%
    22:00 +17°C° 0 mm 3 mps 712 mmHg 20%
    23:00 +17°C° 0 mm 3 mps 712 mmHg 21%

    22 February, Friday

    Time Temperature Precipitation Wind Pressure Humidity
    00:00 +16°C° 0 mm 3 mps 712 mmHg 21%
    01:00 +16°C° 0 mm 3 mps 711 mmHg 22%
    02:00 +14°C° 0 mm 3 mps 711 mmHg 23%
    03:00 +14°C° 0 mm 4 mps 710 mmHg 25%
    04:00 +13°C° 0 mm 4 mps 711 mmHg 26%
    05:00 +13°C° 0 mm 4 mps 711 mmHg 27%
    06:00 +13°C° 0 mm 4 mps 711 mmHg 27%
    07:00 +14°C° 0 mm 5 mps 711 mmHg 25%
    08:00 +15°C° 0 mm 6 mps 712 mmHg 24%
    09:00 +16°C° 0 mm 7 mps 712 mmHg 22%
    10:00 +18°C° 0 mm 7 mps 712 mmHg 20%
    11:00 +20°C° 0 mm 8 mps 711 mmHg 18%
    12:00 +22°C° 0 mm 8 mps 711 mmHg 16%
    13:00 +23°C° 0 mm 7 mps 710 mmHg 15%
    14:00 +24°C° 0 mm 7 mps 709 mmHg 15%
    15:00 +26°C° 0 mm 6 mps 709 mmHg 14%
    16:00 +24°C° 0 mm 6 mps 709 mmHg 15%
    17:00 +23°C° 0 mm 5 mps 709 mmHg 16%
    18:00 +23°C° 0 mm 4 mps 708 mmHg 17%
    19:00 +22°C° 0 mm 5 mps 709 mmHg 18%
    20:00 +21°C° 0 mm 6 mps 709 mmHg 18%
    21:00 +20°C° 0 mm 7 mps 709 mmHg 19%
    22:00 +20°C° 0 mm 7 mps 709 mmHg 20%
    23:00 +19°C° 0 mm 6 mps 709 mmHg 20%

    23 February, Saturday

    Time Temperature Precipitation Wind Pressure Humidity
    00:00 +17°C° 0 mm 6 mps 708 mmHg 21%
    01:00 +17°C° 0 mm 6 mps 708 mmHg 22%
    02:00 +16°C° 0 mm 6 mps 708 mmHg 23%
    03:00 +16°C° 0 mm 5 mps 708 mmHg 24%
    04:00 +15°C° 0 mm 5 mps 708 mmHg 25%
    05:00 +15°C° 0 mm 4 mps 708 mmHg 26%
    06:00 +15°C° 0 mm 4 mps 709 mmHg 26%
    07:00 +16°C° 0 mm 5 mps 709 mmHg 24%
    08:00 +17°C° 0 mm 5 mps 710 mmHg 22%
    09:00 +20°C° 0 mm 6 mps 710 mmHg 20%
    10:00 +22°C° 0 mm 6 mps 710 mmHg 18%
    11:00 +24°C° 0 mm 6 mps 710 mmHg 16%
    12:00 +27°C° 0 mm 6 mps 710 mmHg 15%
    13:00 +28°C° 0 mm 6 mps 709 mmHg 13%
    14:00 +28°C° 0 mm 6 mps 709 mmHg 12%
    15:00 +29°C° 0 mm 6 mps 708 mmHg 10%
    16:00 +28°C° 0 mm 5 mps 708 mmHg 11%
    17:00 +27°C° 0 mm 4 mps 708 mmHg 11%
    18:00 +26°C° 0 mm 3 mps 709 mmHg 11%
    19:00 +25°C° 0 mm 3 mps 709 mmHg 11%
    20:00 +23°C° 0 mm 4 mps 710 mmHg 12%
    21:00 +22°C° 0 mm 4 mps 710 mmHg 12%
    22:00 +21°C° 0 mm 4 mps 710 mmHg 15%
    23:00 +20°C° 0 mm 3 mps 710 mmHg 17%

    24 February, Sunday

    Time Temperature Precipitation Wind Pressure Humidity
    00:00 +19°C° 0 mm 3 mps 710 mmHg 19%
    01:00 +18°C° 0 mm 3 mps 709 mmHg 24%
    02:00 +17°C° 0 mm 3 mps 709 mmHg 28%
    03:00 +16°C° 0 mm 3 mps 709 mmHg 32%
    04:00 +16°C° 0 mm 3 mps 709 mmHg 36%
    05:00 +14°C° 0 mm 3 mps 710 mmHg 39%
    06:00 +15°C° 0 mm 2 mps 710 mmHg 43%
    07:00 +16°C° 0 mm 3 mps 711 mmHg 42%
    08:00 +17°C° 0 mm 3 mps 711 mmHg 40%
    09:00 +18°C° 0 mm 3 mps 712 mmHg 39%
    10:00 +20°C° 0 mm 3 mps 712 mmHg 33%
    11:00 +22°C° 0 mm 4 mps 712 mmHg 27%
    12:00 +25°C° 0 mm 4 mps 711 mmHg 21%
    13:00 +26°C° 0 mm 4 mps 711 mmHg 21%
    14:00 +27°C° 0 mm 4 mps 711 mmHg 20%
    15:00 +27°C° 0 mm 4 mps 710 mmHg 19%
    16:00 +27°C° 0 mm 4 mps 710 mmHg 21%
    17:00 +26°C° 0 mm 4 mps 710 mmHg 22%
    18:00 +26°C° 0 mm 4 mps 710 mmHg 24%
    19:00 +25°C° 0 mm 5 mps 711 mmHg 26%
    20:00 +23°C° 0 mm 5 mps 711 mmHg 29%
    21:00 +22°C° 0 mm 6 mps 711 mmHg 31%
    22:00 +21°C° 0 mm 6 mps 711 mmHg 32%
    23:00 +21°C° 0 mm 5 mps 711 mmHg 34%
    Show more